Weather History for KHHF - November, 2012

Change the Weather History Date:

Tuesday, November 27, 2012

  Actual Average (KPPA) Record (KPPA)
Temperature  
Mean Temperature 36 °F -  
Max Temperature 55 °F 53 °F 77 °F (1977)
Min Temperature 17 °F 26 °F 11 °F (1975)
Degree Days  
Heating Degree Days 29    
Moisture  
Dew Point 21 °F    
Average Humidity 58    
Maximum Humidity 93    
Minimum Humidity 26    
Precipitation  
Precipitation 0.00 in - - ()
Sea Level Pressure  
Sea Level Pressure 30.31 in    
Wind  
Wind Speed 5 mph (SW)    
Max Wind Speed 18 mph    
Max Gust Speed 25 mph    
Visibility 10 miles    
Events      
Averages and records for this station are not official NWS values.
T = Trace of Precipitation, MM = Missing Value Source: NWS Daily Summary

Daily Weather History Graph

Daily Weather History Graph

Search for Another Location

Airport or City:

Trip Planner

Search our weather history database for the weather conditions in past years. The results will help you decide how hot, cold, wet, or windy it might be!

Date:

Astronomy

Nov. 27, 2012 Rise Set
Actual Time 7:30 AM CST 5:28 PM CST
Civil Twilight 7:02 AM CST 5:56 PM CST
Nautical Twilight 6:30 AM CST 6:27 PM CST
Astronomical Twilight 5:59 AM CST 6:58 PM CST
Moon 5:00 PM CST (11/27) 6:37 AM CST (11/27)
Length of Visible Light 10h 54m
Length of Day
9h 58m
Waxing Gibbous, 99% of the Moon is Illuminated
Nov 27
Waxing Gibbous
Nov 28
Full
Dec 6
Last Quarter
Dec 13
New
Dec 19
First Quarter

Hourly Weather History & Observations

Time (CST) Temp. Windchill Dew Point Humidity Pressure Visibility Wind Dir Wind Speed Gust Speed Precip Events Conditions
12:15 AM 28.4 °F - 19.4 °F 69% 30.44 in 10.0 mi Calm Calm - N/A   Clear
12:35 AM 26.6 °F - 19.4 °F 74% 30.43 in 10.0 mi Calm Calm - N/A   Clear
12:55 AM 28.4 °F - 21.2 °F 74% 30.43 in 10.0 mi Calm Calm - N/A   Clear
1:15 AM 23.0 °F - 17.6 °F 80% 30.43 in 10.0 mi Calm Calm - N/A   Clear
1:55 AM 23.0 °F - 17.6 °F 80% 30.41 in 10.0 mi Calm Calm - N/A   Clear
2:15 AM 23.0 °F - 19.4 °F 86% 30.41 in 10.0 mi Calm Calm - N/A   Clear
2:35 AM 19.4 °F - 15.8 °F 86% 30.41 in 10.0 mi Calm Calm - N/A   Clear
2:55 AM 19.4 °F 12.8 °F 15.8 °F 86% 30.42 in 10.0 mi SW 4.6 mph - N/A   Clear
3:15 AM 19.4 °F 12.8 °F 15.8 °F 86% 30.43 in 10.0 mi WSW 4.6 mph - N/A   Clear
3:55 AM 23.0 °F 18.4 °F 21.2 °F 93% 30.42 in 10.0 mi SSW 3.5 mph - N/A   Clear
4:15 AM 19.4 °F 14.3 °F 17.6 °F 93% 30.42 in 10.0 mi SW 3.5 mph - N/A   Clear
4:35 AM 23.0 °F 15.8 °F 19.4 °F 86% 30.40 in 10.0 mi SSW 5.8 mph - N/A   Clear
4:55 AM 19.4 °F - 15.8 °F 86% 30.41 in 10.0 mi Calm Calm - N/A   Clear
5:15 AM 19.4 °F 14.3 °F 15.8 °F 86% 30.39 in 10.0 mi WSW 3.5 mph - N/A   Clear
5:35 AM 19.4 °F 12.8 °F 17.6 °F 93% 30.39 in 10.0 mi WSW 4.6 mph - N/A   Clear
5:55 AM 19.4 °F - 17.6 °F 93% 30.40 in 10.0 mi Calm Calm - N/A   Clear
6:15 AM 19.4 °F - 17.6 °F 93% 30.40 in 10.0 mi Calm Calm - N/A   Clear
6:35 AM 21.2 °F - 17.6 °F 86% 30.40 in 10.0 mi Calm Calm - N/A   Clear
6:55 AM 19.4 °F - 17.6 °F 93% 30.42 in 10.0 mi Calm Calm - N/A   Clear
7:15 AM 19.4 °F - 17.6 °F 93% 30.41 in 10.0 mi Calm Calm - N/A   Clear
7:35 AM 17.6 °F 12.3 °F 14.0 °F 86% 30.40 in 10.0 mi SW 3.5 mph - N/A   Clear
7:55 AM 19.4 °F - 17.6 °F 93% 30.40 in 7.0 mi Calm Calm - N/A   Clear
8:15 AM 19.4 °F - 17.6 °F 93% 30.39 in 10.0 mi Calm Calm - N/A   Clear
8:35 AM 23.0 °F - 19.4 °F 86% 30.40 in 10.0 mi Calm Calm - N/A   Clear
8:55 AM 28.4 °F - 21.2 °F 74% 30.40 in 10.0 mi Calm Calm - N/A   Clear
9:35 AM 33.8 °F - 24.8 °F 70% 30.39 in 10.0 mi Calm Calm - N/A   Clear
9:55 AM 39.2 °F 31.2 °F 26.6 °F 61% 30.38 in 10.0 mi SSW 13.8 mph - N/A   Clear
10:15 AM 41.0 °F 34.3 °F 26.6 °F 57% 30.39 in 10.0 mi SW 11.5 mph - N/A   Clear
10:35 AM 42.8 °F 37.5 °F 23.0 °F 46% 30.38 in 10.0 mi SW 9.2 mph - N/A   Clear
10:55 AM 42.8 °F 36.2 °F 21.2 °F 42% 30.37 in 10.0 mi SSW 12.7 mph - N/A   Clear
11:15 AM 44.6 °F 38.4 °F 21.2 °F 39% 30.35 in 10.0 mi SW 12.7 mph - N/A   Clear
11:35 AM 46.4 °F 39.8 °F 19.4 °F 34% 30.33 in 10.0 mi SSW 16.1 mph - N/A   Clear
11:55 AM 50.0 °F - 19.4 °F 30% 30.33 in 10.0 mi SSW 15.0 mph 23.0 mph N/A   Clear
12:15 PM 50.0 °F - 19.4 °F 30% 30.31 in 10.0 mi SSW 16.1 mph 19.6 mph N/A   Clear
12:35 PM 50.0 °F - 19.4 °F 30% 30.30 in 10.0 mi SSW 15.0 mph - N/A   Clear
12:55 PM 51.8 °F - 21.2 °F 30% 30.29 in 10.0 mi SW 16.1 mph 25.3 mph N/A   Clear
1:15 PM 51.8 °F - 21.2 °F 30% 30.27 in 10.0 mi South 15.0 mph 19.6 mph N/A   Clear
1:35 PM 53.6 °F - 21.2 °F 28% 30.26 in 10.0 mi SSW 17.3 mph 24.2 mph N/A   Clear
1:55 PM 53.6 °F - 21.2 °F 28% 30.24 in 10.0 mi SSW 18.4 mph 23.0 mph N/A   Clear
2:15 PM 53.6 °F - 21.2 °F 28% 30.23 in 10.0 mi SSW 12.7 mph 21.9 mph N/A   Clear
2:35 PM 53.6 °F - 21.2 °F 28% 30.22 in 10.0 mi SSW 13.8 mph 20.7 mph N/A   Clear
2:55 PM 55.4 °F - 21.2 °F 26% 30.21 in 10.0 mi SSW 15.0 mph 23.0 mph N/A   Clear
3:15 PM 55.4 °F - 21.2 °F 26% 30.21 in 10.0 mi SSW 17.3 mph 23.0 mph N/A   Clear
3:35 PM 55.4 °F - 21.2 °F 26% 30.21 in 10.0 mi South 13.8 mph - N/A   Clear
3:55 PM 53.6 °F - 21.2 °F 28% 30.21 in 10.0 mi SSW 16.1 mph - N/A   Clear
4:15 PM 53.6 °F - 21.2 °F 28% 30.20 in 10.0 mi SSW 15.0 mph 20.7 mph N/A   Clear
4:35 PM 53.6 °F - 21.2 °F 28% 30.20 in 10.0 mi SSW 16.1 mph 21.9 mph N/A   Clear
4:55 PM 51.8 °F - 21.2 °F 30% 30.20 in 10.0 mi SSW 16.1 mph - N/A   Clear
5:15 PM 50.0 °F - 21.2 °F 32% 30.20 in 10.0 mi South 9.2 mph 17.3 mph N/A   Clear
5:55 PM 44.6 °F 42.2 °F 21.2 °F 39% 30.20 in 10.0 mi SSW 4.6 mph - N/A   Clear
6:35 PM 44.6 °F 40.7 °F 21.2 °F 39% 30.20 in 10.0 mi SSW 6.9 mph - N/A   Clear
6:55 PM 42.8 °F 40.1 °F 21.2 °F 42% 30.21 in 10.0 mi SW 4.6 mph - N/A   Clear
7:15 PM 42.8 °F 38.0 °F 21.2 °F 42% 30.20 in 10.0 mi SW 8.1 mph - N/A   Clear
7:35 PM 42.8 °F 37.5 °F 21.2 °F 42% 30.21 in 10.0 mi SW 9.2 mph - N/A   Clear
7:55 PM 42.8 °F 36.6 °F 23.0 °F 46% 30.21 in 10.0 mi SSW 11.5 mph - N/A   Clear
8:15 PM 41.0 °F 35.2 °F 23.0 °F 49% 30.21 in 10.0 mi SW 9.2 mph - N/A   Clear
8:35 PM 41.0 °F 34.7 °F 23.0 °F 49% 30.21 in 10.0 mi SW 10.4 mph - N/A   Clear
8:55 PM 41.0 °F 34.7 °F 23.0 °F 49% 30.21 in 10.0 mi SW 10.4 mph - N/A   Clear
9:15 PM 41.0 °F 34.7 °F 24.8 °F 53% 30.21 in 10.0 mi SW 10.4 mph - N/A   Clear
9:35 PM 41.0 °F 35.2 °F 24.8 °F 53% 30.21 in 10.0 mi SW 9.2 mph - N/A   Clear
9:55 PM 39.2 °F 34.2 °F 24.8 °F 56% 30.21 in 10.0 mi WSW 6.9 mph - N/A   Clear
10:15 PM 39.2 °F 34.2 °F 24.8 °F 56% 30.21 in 10.0 mi SW 6.9 mph - N/A   Clear
10:35 PM 37.4 °F 32.1 °F 24.8 °F 60% 30.21 in 10.0 mi SW 6.9 mph - N/A   Clear
10:55 PM 37.4 °F 33.8 °F 24.8 °F 60% 30.21 in 10.0 mi SW 4.6 mph - N/A   Clear
11:55 PM 33.8 °F - 23.0 °F 65% 30.21 in 10.0 mi Calm Calm - N/A   Clear